Weather in Shomba

Russia / Republic of Karelia     65°05′55″N   33°01′26″E
temp.,
°C
wind,
m/s
gust,
m/s
humid.,
%
clouds,
%
prec.,
mm/h
press.,
hPa
HPBL,
m
23 january, sat
sat2300:00−18ese4995100 0.0 1009380
03:00−18e4993100 0.1 1009402
06:00−17ese51194100 0.1 1005495
09:00−17ese61195100 0.4 1006405
12:00−15ese51095100 2.3 1002456
15:00−15ese51095100 7.5 1003375
18:00−14e3696100 0.3 1000232
21:00−13ese3696100 0.6 1000206
24 january, sun
sun2400:00−10se2496100 0.3 1002113
03:00−6s249796 0.4 100382
06:00−2ssw389594 0.1 1003297
09:00−1ssw31093100 0.6 1001401
12:00−3s2695100 0.0 1005140
15:00−3sse2496100 0.0 1005128
18:00−2se2598100 0.6 1001151
21:00−1ese239898 0.9 100198
25 january, mon
mon2500:00+1sse2499100 0.1 1000121
03:00+1se25100100 2.7 1002140
06:00+1sse27100100 1.9 999182
09:00+1sse27100100 1.6 1002158
12:00+1sse2699100 0.3 1002192
15:00+1sse2699100 1.2 1000180
18:00+2s3899100 0.3 1001262
21:00+1sse2799100 1.0 1002187
26 january, tue
tue2600:00+1s3898100 0.2 1003353
03:00−1s3696100 0.0 1006137
06:00−1s2397100 0.0 100796
09:000s2499100 0.4 1004173
12:00+1sw3799100 0.1 1006309
15:00+1ese3699100 0.2 1008201
18:00−2ssw2696100 0.1 1009155
21:000ese2699100 0.4 1008262
27 january, wed
wed2700:00−6s2294100 0.0 100921
03:00−6se229599 0.0 100921
06:00−3e369795 0.5 1007219
09:00−6e2498100 0.0 100886
12:00−2e3698100 0.0 1007389
15:00−2ese379698 0.4 1005394
18:00−3ese3797100 1.1 1005337
21:00−3ene369799 1.3 1003257